Satellite: NO-44
Catalog number: 26931
Epoch time:      10126.50756035
Element set:     451
Inclination:      067.0530 deg
RA of node:       311.3595 deg
Eccentricity:    0.0005745
Arg of perigee:   263.6105 deg
Mean anomaly:     096.4345 deg
Mean motion:   14.29596482 rev/day
Decay rate:       2.31e-06 rev/day^2
Epoch rev:           44879
Checksum:              301

Satellite: SO-50
Catalog number: 27607
Epoch time:      10125.94150947
Element set:    0168
Inclination:      064.5575 deg
RA of node:       124.8328 deg
Eccentricity:    0.0034433
Arg of perigee:   096.3495 deg
Mean anomaly:     264.1534 deg
Mean motion:   14.71534251 rev/day
Decay rate:       1.43e-06 rev/day^2
Epoch rev:           39616
Checksum:              304

Satellite: CO-55
Catalog number: 27844
Epoch time:      10126.54309652
Element set:     840
Inclination:      098.7098 deg
RA of node:       136.1157 deg
Eccentricity:    0.0009229
Arg of perigee:   296.4077 deg
Mean anomaly:     063.6164 deg
Mean motion:   14.20704073 rev/day
Decay rate:        8.5e-07 rev/day^2
Epoch rev:           35517
Checksum:              312

Satellite: CO-57
Catalog number: 27848
Epoch time:      10126.00310635
Element set:     789
Inclination:      098.7136 deg
RA of node:       134.6692 deg
Eccentricity:    0.0009346
Arg of perigee:   302.6946 deg
Mean anomaly:     057.3335 deg
Mean motion:   14.20496582 rev/day
Decay rate:        4.3e-07 rev/day^2
Epoch rev:           35505
Checksum:              313

Satellite: AO-51
Catalog number: 28375
Epoch time:      10125.50507251
Element set:     668
Inclination:      098.0615 deg
RA of node:       121.4360 deg
Eccentricity:    0.0082818
Arg of perigee:   226.9589 deg
Mean anomaly:     132.4647 deg
Mean motion:   14.40682433 rev/day
Decay rate:        3.4e-07 rev/day^2
Epoch rev:           30736
Checksum:              298

Satellite: GENESAT1
Catalog number: 29655
Epoch time:      10126.80868312
Element set:      45
Inclination:      040.0185 deg
RA of node:       297.5044 deg
Eccentricity:    0.0005698
Arg of perigee:   005.0285 deg
Mean anomaly:     355.0566 deg
Mean motion:   15.85746024 rev/day
Decay rate:    1.19329e-03 rev/day^2
Epoch rev:           19340
Checksum:              300

Satellite: CP3
Catalog number: 31129
Epoch time:      10126.11841578
Element set:     569
Inclination:      097.9425 deg
RA of node:       167.9324 deg
Eccentricity:    0.0102703
Arg of perigee:   005.2075 deg
Mean anomaly:     355.0188 deg
Mean motion:   14.52248426 rev/day
Decay rate:       2.00e-06 rev/day^2
Epoch rev:           16175
Checksum:              283

Satellite: CO-65
Catalog number: 32785
Epoch time:      10126.29404065
Element set:     673
Inclination:      097.8987 deg
RA of node:       191.7944 deg
Eccentricity:    0.0016114
Arg of perigee:   062.7834 deg
Mean anomaly:     297.4988 deg
Mean motion:   14.81645326 rev/day
Decay rate:       6.95e-06 rev/day^2
Epoch rev:           10928
Checksum:              355

Satellite: KKS-1
Catalog number: 33493
Epoch time:      10126.77036930
Element set:     455
Inclination:      098.0812 deg
RA of node:       245.9202 deg
Eccentricity:    0.0018633
Arg of perigee:   275.8151 deg
Mean anomaly:     084.0953 deg
Mean motion:   14.80969079 rev/day
Decay rate:       7.43e-06 rev/day^2
Epoch rev:            6935
Checksum:              313

Satellite: SOHLA-1
Catalog number: 33496
Epoch time:      10126.48888826
Element set:      95
Inclination:      098.0547 deg
RA of node:       236.1120 deg
Eccentricity:    0.0006451
Arg of perigee:   345.8942 deg
Mean anomaly:     014.2067 deg
Mean motion:   14.69490304 rev/day
Decay rate:        8.1e-07 rev/day^2
Epoch rev:            6875
Checksum:              307

/EX
SB KEPS @ AMSAT  $ORB10126.W
Orbital Elements  10126.WEATHER

HR AMSAT ORBITAL ELEMENTS FOR WEATHER SATELLITES
FROM WA5QGD FORT WORTH,TX May 6, 2010
Send Subscribe/unsubscribe to KEPS at http://www.amsat.org/mailman/listinfo/kep
BID: ORB10126.W
TO ALL RADIO AMATEURS BT

Satellite: NOAA-10
Catalog number: 16969
Epoch time:      10126.09512069
Element set:      56
Inclination:      098.6587 deg
RA of node:       155.4523 deg
Eccentricity:    0.0011955
Arg of perigee:   339.3598 deg
Mean anomaly:     020.7095 deg
Mean motion:   14.27415306 rev/day
Decay rate:        8.0e-07 rev/day^2
Epoch rev:           22957
Checksum:              314

Satellite: NOAA-11
Catalog number: 19531
Epoch time:      10126.30650089
Element set:      69
Inclination:      098.7677 deg
RA of node:       216.0426 deg
Eccentricity:    0.0010718
Arg of perigee:   268.9269 deg
Mean anomaly:     091.0706 deg
Mean motion:   14.14924633 rev/day
Decay rate:       1.66e-06 rev/day^2
Epoch rev:           11521
Checksum:              294

Satellite: NOAA-12
Catalog number: 21263
Epoch time:      10126.24072470
Element set:     554
Inclination:      098.7661 deg
RA of node:       139.4045 deg
Eccentricity:    0.0011498
Arg of perigee:   291.2997 deg
Mean anomaly:     068.6957 deg
Mean motion:   14.25630372 rev/day
Decay rate:       -1.6e-07 rev/day^2
Epoch rev:           98642
Checksum:              314

